Location: Warszawa
(52.2500°N, 21.0000°E)
Time: 11:18:02
(UTC+01:00)

Explorer 7 - All Passes

Search period start: 28 January 2023 00:00
Search period end: 07 February 2023 00:00
Orbit: 480 x 660 km, 50.3° (Epoch: 27 January)

Date Brightness Start Highest point End Pass type
(mag) Time Alt. Az. Time Alt. Az. Time Alt. Az.
28 Jan - 13:57:19 10° SSW 14:01:04 29° SSE 14:05:02 10° E daylight
28 Jan - 15:36:30 10° WSW 15:40:56 62° SSE 15:45:35 10° E daylight
28 Jan - 17:16:34 10° W 17:21:09 66° S 17:25:52 10° ESE visible
28 Jan - 18:56:52 10° W 19:01:09 35° SSW 19:05:30 10° SE visible
28 Jan - 20:39:14 10° WSW 20:40:31 11° SW 20:41:48 10° SSW visible
29 Jan - 12:21:35 10° SSE 12:22:39 11° SE 12:23:43 10° ESE daylight
29 Jan - 13:57:56 10° SW 14:01:56 36° SSE 14:06:08 10° E daylight
29 Jan - 15:37:27 10° WSW 15:41:54 68° S 15:46:35 10° E daylight
29 Jan - 17:17:34 10° W 17:22:07 60° SSW 17:26:49 10° ESE visible
29 Jan - 18:58:00 10° W 19:02:00 28° SSW 19:06:03 10° SSE visible
30 Jan - 12:20:52 10° S 12:23:20 15° SE 12:25:52 10° ESE daylight
30 Jan - 13:58:40 10° SW 14:02:48 44° SSE 14:07:10 10° E daylight
30 Jan - 15:38:25 10° W 15:42:53 70° S 15:47:34 10° E daylight
30 Jan - 17:18:34 10° W 17:23:03 52° SSW 17:27:41 10° ESE visible
30 Jan - 18:59:13 10° W 19:02:48 22° SW 19:06:25 10° SSE visible
31 Jan - 12:20:56 10° S 12:24:03 20° SE 12:27:19 10° E daylight
31 Jan - 13:59:28 10° WSW 14:03:42 52° SSE 14:08:10 10° E daylight
31 Jan - 15:39:23 10° W 15:43:50 70° S 15:48:31 10° E daylight
31 Jan - 17:19:34 10° W 17:23:57 44° SSW 17:28:28 10° SE visible
31 Jan - 19:00:37 10° W 19:03:32 16° SW 19:06:30 10° S visible
01 Feb - 12:21:18 10° SSW 12:24:49 26° SSE 12:28:31 10° E daylight
01 Feb - 14:00:20 10° WSW 14:04:36 60° SSE 14:09:08 10° E daylight
01 Feb - 15:40:20 10° W 15:44:47 67° S 15:49:27 10° ESE daylight
01 Feb - 17:20:35 10° W 17:24:48 36° SSW 17:29:09 10° SE visible
01 Feb - 19:02:30 10° WSW 19:04:14 12° SW 19:05:59 10° SSW visible
02 Feb - 12:21:50 10° SW 12:25:36 33° SSE 12:29:36 10° E daylight
02 Feb - 14:01:14 10° WSW 14:05:31 66° S 14:10:05 10° E daylight
02 Feb - 15:41:17 10° W 15:45:42 61° SSW 15:50:21 10° ESE daylight
02 Feb - 17:21:39 10° W 17:25:37 29° SSW 17:29:42 10° SSE visible
03 Feb - 10:45:06 10° SSE 10:47:02 13° SE 10:49:02 10° ESE daylight
03 Feb - 12:22:29 10° SW 12:26:25 40° SSE 12:30:36 10° E daylight
03 Feb - 14:02:08 10° W 14:06:26 69° S 14:11:00 10° E daylight
03 Feb - 15:42:13 10° W 15:46:36 54° SSW 15:51:10 10° ESE daylight
03 Feb - 17:22:47 10° W 17:26:23 23° SW 17:30:04 10° SSE visible
04 Feb - 10:44:55 10° S 10:47:42 18° SE 10:50:35 10° E daylight
04 Feb - 12:23:13 10° SW 12:27:15 49° SSE 12:31:34 10° E daylight
04 Feb - 14:03:02 10° W 14:07:21 70° S 14:11:55 10° E daylight
04 Feb - 15:43:10 10° W 15:47:27 46° SSW 15:51:56 10° SE daylight
04 Feb - 17:24:04 10° W 17:27:05 17° SW 17:30:10 10° S visible
05 Feb - 10:45:08 10° SSW 10:48:24 23° SE 10:51:49 10° E daylight
05 Feb - 12:24:00 10° WSW 12:28:06 57° SSE 12:32:28 10° E daylight
05 Feb - 14:03:57 10° W 14:08:14 67° S 14:12:48 10° ESE daylight
05 Feb - 15:44:08 10° W 15:48:16 38° SSW 15:52:35 10° SE daylight
05 Feb - 17:25:44 10° WSW 17:27:45 13° SW 17:29:47 10° SSW visible
06 Feb - 10:45:34 10° SSW 10:49:07 30° SSE 10:52:52 10° E daylight
06 Feb - 12:24:50 10° WSW 12:28:58 63° S 12:33:23 10° E daylight
06 Feb - 14:04:50 10° W 14:09:07 62° S 14:13:39 10° ESE daylight
06 Feb - 15:45:08 10° W 15:49:02 30° SSW 15:53:06 10° SSE daylight
